Time,TemperatureF,DewpointF,PressureIn,WindDirection,WindDirectionDegrees,WindSpeedMPH,WindSpeedGustMPH,Humidity,HourlyPrecipIn,Conditions,Clouds,dailyrainin,SoftwareType,DateUTC
2013-01-30 00:02:00,-999.0,-99.9,29.04,North,-999,-999.0,-999.0,-999,0.00,,,0.00,weatherlink.com 1.10,2013-01-30 00:02:00,
2013-01-30 00:18:00,-999.0,-99.9,29.04,North,-999,-999.0,-999.0,-999,0.00,,,0.00,weatherlink.com 1.10,2013-01-30 00:18:00,
2013-01-30 00:33:00,-999.0,-99.9,29.04,North,-999,-999.0,-999.0,-999,0.00,,,0.00,weatherlink.com 1.10,2013-01-30 00:33:00,
2013-01-30 00:48:00,-999.0,-99.9,29.04,North,-999,-999.0,-999.0,-999,0.00,,,0.00,weatherlink.com 1.10,2013-01-30 00:48:00,
2013-01-30 01:03:00,-999.0,-99.9,29.04,North,-999,-999.0,-999.0,-999,0.00,,,0.00,weatherlink.com 1.10,2013-01-30 01:03:00,
2013-01-30 01:18:00,-999.0,-99.9,29.03,North,-999,-999.0,-999.0,-999,0.00,,,0.00,weatherlink.com 1.10,2013-01-30 01:18:00,
2013-01-30 01:33:00,-999.0,-99.9,29.04,North,-999,-999.0,-999.0,-999,0.00,,,0.00,weatherlink.com 1.10,2013-01-30 01:33:00,
2013-01-30 01:48:00,-999.0,-99.9,29.03,North,-999,-999.0,-999.0,-999,0.00,,,0.00,weatherlink.com 1.10,2013-01-30 01:48:00,
2013-01-30 02:03:00,-999.0,-99.9,29.05,North,-999,-999.0,-999.0,-999,0.00,,,0.00,weatherlink.com 1.10,2013-01-30 02:03:00,
2013-01-30 02:18:00,-999.0,-99.9,29.06,North,-999,-999.0,-999.0,-999,0.00,,,0.00,weatherlink.com 1.10,2013-01-30 02:18:00,
2013-01-30 02:33:00,-999.0,-99.9,29.07,North,-999,-999.0,-999.0,-999,0.00,,,0.00,weatherlink.com 1.10,2013-01-30 02:33:00,
2013-01-30 02:48:00,-999.0,-99.9,29.07,North,-999,-999.0,-999.0,-999,0.00,,,0.00,weatherlink.com 1.10,2013-01-30 02:48:00,
2013-01-30 03:03:00,-999.0,-99.9,29.07,North,-999,-999.0,-999.0,-999,0.00,,,0.00,weatherlink.com 1.10,2013-01-30 03:03:00,
2013-01-30 03:18:00,-999.0,-99.9,29.07,North,-999,-999.0,-999.0,-999,0.00,,,0.00,weatherlink.com 1.10,2013-01-30 03:18:00,
2013-01-30 03:33:00,-999.0,-99.9,29.08,North,-999,-999.0,-999.0,-999,0.00,,,0.00,weatherlink.com 1.10,2013-01-30 03:33:00,
2013-01-30 03:49:00,-999.0,-99.9,29.08,North,-999,-999.0,-999.0,-999,0.00,,,0.00,weatherlink.com 1.10,2013-01-30 03:49:00,
2013-01-30 04:04:00,-999.0,-99.9,29.09,North,-999,-999.0,-999.0,-999,0.00,,,0.00,weatherlink.com 1.10,2013-01-30 04:04:00,
2013-01-30 04:19:00,-999.0,-99.9,29.09,North,-999,-999.0,-999.0,-999,0.00,,,0.00,weatherlink.com 1.10,2013-01-30 04:19:00,
2013-01-30 04:34:00,-999.0,-99.9,29.10,North,-999,-999.0,-999.0,-999,0.00,,,0.00,weatherlink.com 1.10,2013-01-30 04:34:00,
2013-01-30 04:49:00,-999.0,-99.9,29.09,North,-999,-999.0,-999.0,-999,0.00,,,0.00,weatherlink.com 1.10,2013-01-30 04:49:00,
2013-01-30 05:04:00,-999.0,-99.9,29.09,North,-999,-999.0,-999.0,-999,0.00,,,0.00,weatherlink.com 1.10,2013-01-30 05:04:00,
2013-01-30 05:19:00,-999.0,-99.9,29.09,North,-999,-999.0,-999.0,-999,0.00,,,0.00,weatherlink.com 1.10,2013-01-30 05:19:00,
2013-01-30 05:34:00,-999.0,-99.9,29.09,North,-999,-999.0,-999.0,-999,0.00,,,0.00,weatherlink.com 1.10,2013-01-30 05:34:00,
2013-01-30 05:49:00,-999.0,-99.9,29.09,North,-999,-999.0,-999.0,-999,0.00,,,0.00,weatherlink.com 1.10,2013-01-30 05:49:00,
2013-01-30 06:04:00,-999.0,-99.9,29.10,North,-999,-999.0,-999.0,-999,0.00,,,0.00,weatherlink.com 1.10,2013-01-30 06:04:00,
2013-01-30 06:19:00,-999.0,-99.9,29.10,North,-999,-999.0,-999.0,-999,0.00,,,0.00,weatherlink.com 1.10,2013-01-30 06:19:00,
2013-01-30 06:34:00,-999.0,-99.9,29.10,North,-999,-999.0,-999.0,-999,0.00,,,0.00,weatherlink.com 1.10,2013-01-30 06:34:00,
2013-01-30 06:50:00,-999.0,-99.9,29.11,North,-999,-999.0,-999.0,-999,0.00,,,0.00,weatherlink.com 1.10,2013-01-30 06:50:00,
2013-01-30 07:05:00,-999.0,-99.9,29.11,North,-999,-999.0,-999.0,-999,0.00,,,0.00,weatherlink.com 1.10,2013-01-30 07:05:00,
2013-01-30 07:20:00,-999.0,-99.9,29.11,North,-999,-999.0,-999.0,-999,0.00,,,0.00,weatherlink.com 1.10,2013-01-30 07:20:00,
2013-01-30 07:35:00,-999.0,-99.9,29.11,North,-999,-999.0,-999.0,-999,0.00,,,0.00,weatherlink.com 1.10,2013-01-30 07:35:00,
2013-01-30 07:50:00,-999.0,-99.9,29.11,North,-999,-999.0,-999.0,-999,0.00,,,0.00,weatherlink.com 1.10,2013-01-30 07:50:00,
2013-01-30 08:05:00,-999.0,-99.9,29.11,North,-999,-999.0,-999.0,-999,0.00,,,0.00,weatherlink.com 1.10,2013-01-30 08:05:00,
2013-01-30 08:20:00,-999.0,-99.9,29.11,North,-999,-999.0,-999.0,-999,0.00,,,0.00,weatherlink.com 1.10,2013-01-30 08:20:00,
2013-01-30 08:35:00,-999.0,-99.9,29.13,North,-999,-999.0,-999.0,-999,0.00,,,0.00,weatherlink.com 1.10,2013-01-30 08:35:00,
2013-01-30 08:50:00,-999.0,-99.9,29.14,North,-999,-999.0,-999.0,-999,0.00,,,0.00,weatherlink.com 1.10,2013-01-30 08:50:00,
2013-01-30 09:05:00,45.3,39.0,29.14,WSW,248,19.0,31.0,77,0.00,,,0.00,weatherlink.com 1.10,2013-01-30 09:05:00,
2013-01-30 09:20:00,45.6,38.0,29.14,NNW,339,19.0,32.0,74,0.00,,,0.00,weatherlink.com 1.10,2013-01-30 09:20:00,
2013-01-30 09:35:00,45.9,37.0,29.15,WNW,302,11.0,29.0,71,0.00,,,0.00,weatherlink.com 1.10,2013-01-30 09:35:00,
2013-01-30 09:50:00,45.9,37.0,29.15,West,276,20.0,37.0,72,0.00,,,0.00,weatherlink.com 1.10,2013-01-30 09:50:00,
2013-01-30 10:05:00,46.3,37.0,29.15,NW,304,27.0,35.0,69,0.00,,,0.00,weatherlink.com 1.10,2013-01-30 10:05:00,
2013-01-30 10:21:00,46.3,38.0,29.15,NW,308,30.0,32.0,73,0.00,,,0.00,weatherlink.com 1.10,2013-01-30 10:21:00,
2013-01-30 10:36:00,46.3,37.0,29.16,North,358,17.0,36.0,71,0.00,,,0.00,weatherlink.com 1.10,2013-01-30 10:36:00,
2013-01-30 10:51:00,46.1,38.0,29.17,NNW,339,25.0,45.0,73,0.00,,,0.00,weatherlink.com 1.10,2013-01-30 10:51:00,
2013-01-30 11:06:00,43.6,38.0,29.18,NNW,327,15.0,35.0,80,0.00,,,0.00,weatherlink.com 1.10,2013-01-30 11:06:00,
2013-01-30 11:21:00,45.2,38.0,29.20,WNW,294,19.0,44.0,75,0.00,,,0.00,weatherlink.com 1.10,2013-01-30 11:21:00,
2013-01-30 11:36:00,45.0,39.0,29.22,NNW,328,20.0,27.0,78,0.00,,,0.00,weatherlink.com 1.10,2013-01-30 11:36:00,
2013-01-30 11:51:00,44.9,39.0,29.21,NW,325,16.0,27.0,80,0.00,,,0.00,weatherlink.com 1.10,2013-01-30 11:51:00,
2013-01-30 12:06:00,45.8,39.0,29.22,WNW,294,19.0,32.0,77,0.00,,,0.00,weatherlink.com 1.10,2013-01-30 12:06:00,
2013-01-30 12:21:00,45.3,39.0,29.23,NW,316,18.0,33.0,78,0.00,,,0.00,weatherlink.com 1.10,2013-01-30 12:21:00,
2013-01-30 12:36:00,44.4,39.0,29.25,WNW,285,24.0,38.0,82,0.00,,,0.00,weatherlink.com 1.10,2013-01-30 12:36:00,
2013-01-30 12:51:00,44.3,40.0,29.27,NNW,333,18.0,34.0,84,0.00,,,0.00,weatherlink.com 1.10,2013-01-30 12:51:00,
2013-01-30 13:06:00,43.8,40.0,29.27,WNW,288,9.0,36.0,86,0.00,,,0.00,weatherlink.com 1.10,2013-01-30 13:06:00,
2013-01-30 13:21:00,44.1,40.0,29.28,WNW,285,3.0,34.0,86,0.00,,,0.00,weatherlink.com 1.10,2013-01-30 13:21:00,
2013-01-30 13:36:00,44.5,40.0,29.29,NW,304,18.0,33.0,85,0.00,,,0.00,weatherlink.com 1.10,2013-01-30 13:36:00,
2013-01-30 13:51:00,45.0,41.0,29.30,NNE,13,8.0,33.0,84,0.00,,,0.00,weatherlink.com 1.10,2013-01-30 13:51:00,
2013-01-30 14:06:00,45.2,41.0,29.31,North,359,16.0,24.0,84,0.00,,,0.00,weatherlink.com 1.10,2013-01-30 14:06:00,
2013-01-30 14:21:00,45.4,41.0,29.32,NNW,333,20.0,31.0,83,0.00,,,0.00,weatherlink.com 1.10,2013-01-30 14:21:00,
2013-01-30 14:36:00,45.3,41.0,29.34,NNW,338,18.0,29.0,84,0.00,,,0.00,weatherlink.com 1.10,2013-01-30 14:36:00,
2013-01-30 14:51:00,45.1,41.0,29.37,North,11,14.0,24.0,86,0.00,,,0.00,weatherlink.com 1.10,2013-01-30 14:51:00,
2013-01-30 15:21:00,45.5,40.0,29.41,ENE,74,5.0,27.0,82,0.00,,,0.00,weatherlink.com 1.10,2013-01-30 15:21:00,
2013-01-30 15:36:00,45.6,40.0,29.42,NW,325,15.0,28.0,82,0.00,,,0.00,weatherlink.com 1.10,2013-01-30 15:36:00,
2013-01-30 15:52:00,45.5,40.0,29.44,WNW,284,12.0,24.0,81,0.00,,,0.00,weatherlink.com 1.10,2013-01-30 15:52:00,
2013-01-30 16:07:00,45.4,40.0,29.45,NNW,335,14.0,18.0,81,0.00,,,0.00,weatherlink.com 1.10,2013-01-30 16:07:00,
2013-01-30 16:22:00,45.6,40.0,29.45,North,356,9.0,21.0,80,0.00,,,0.00,weatherlink.com 1.10,2013-01-30 16:22:00,
2013-01-30 16:37:00,45.2,40.0,29.46,NNW,335,10.0,21.0,81,0.00,,,0.00,weatherlink.com 1.10,2013-01-30 16:37:00,
2013-01-30 16:52:00,44.9,40.0,29.47,WNW,302,6.0,17.0,82,0.00,,,0.00,weatherlink.com 1.10,2013-01-30 16:52:00,
2013-01-30 17:07:00,44.8,40.0,29.48,North,358,8.0,19.0,84,0.00,,,0.00,weatherlink.com 1.10,2013-01-30 17:07:00,
2013-01-30 17:22:00,44.8,40.0,29.48,East,83,5.0,17.0,82,0.00,,,0.00,weatherlink.com 1.10,2013-01-30 17:22:00,
2013-01-30 17:37:00,44.1,39.0,29.49,WNW,291,13.0,17.0,81,0.00,,,0.00,weatherlink.com 1.10,2013-01-30 17:37:00,
2013-01-30 17:52:00,43.9,38.0,29.50,WNW,291,9.0,20.0,80,0.00,,,0.00,weatherlink.com 1.10,2013-01-30 17:52:00,
2013-01-30 18:07:00,43.2,38.0,29.50,NW,312,7.0,13.0,81,0.00,,,0.00,weatherlink.com 1.10,2013-01-30 18:07:00,
2013-01-30 18:22:00,42.8,38.0,29.50,North,11,3.0,15.0,82,0.00,,,0.00,weatherlink.com 1.10,2013-01-30 18:22:00,
2013-01-30 18:37:00,42.6,38.0,29.50,WNW,294,6.0,15.0,82,0.00,,,0.00,weatherlink.com 1.10,2013-01-30 18:37:00,
2013-01-30 18:52:00,42.4,37.0,29.50,WNW,302,12.0,14.0,82,0.00,,,0.00,weatherlink.com 1.10,2013-01-30 18:52:00,
2013-01-30 19:07:00,42.2,37.0,29.50,NW,320,6.0,19.0,83,0.00,,,0.00,weatherlink.com 1.10,2013-01-30 19:07:00,
2013-01-30 19:37:00,42.1,37.0,29.49,West,278,6.0,16.0,83,0.00,,,0.00,weatherlink.com 1.10,2013-01-30 19:37:00,
2013-01-30 19:52:00,42.4,37.0,29.48,West,278,7.0,18.0,82,0.00,,,0.00,weatherlink.com 1.10,2013-01-30 19:52:00,
2013-01-30 20:07:00,42.5,37.0,29.48,North,351,9.0,20.0,81,0.00,,,0.00,weatherlink.com 1.10,2013-01-30 20:07:00,
2013-01-30 20:22:00,42.5,37.0,29.48,West,269,14.0,18.0,81,0.00,,,0.00,weatherlink.com 1.10,2013-01-30 20:22:00,
2013-01-30 20:37:00,42.7,37.0,29.48,West,264,10.0,22.0,79,0.00,,,0.00,weatherlink.com 1.10,2013-01-30 20:37:00,
2013-01-30 20:52:00,42.9,37.0,29.47,WNW,297,16.0,22.0,79,0.00,,,0.00,weatherlink.com 1.10,2013-01-30 20:52:00,
2013-01-30 21:07:00,43.0,37.0,29.46,West,264,11.0,19.0,78,0.00,,,0.00,weatherlink.com 1.10,2013-01-30 21:07:00,
2013-01-30 21:22:00,43.5,36.0,29.46,West,262,15.0,20.0,76,0.00,,,0.00,weatherlink.com 1.10,2013-01-30 21:22:00,
2013-01-30 21:37:00,44.2,36.0,29.45,WNW,294,15.0,28.0,74,0.00,,,0.00,weatherlink.com 1.10,2013-01-30 21:37:00,
2013-01-30 21:52:00,44.4,37.0,29.45,NW,311,21.0,28.0,75,0.00,,,0.00,weatherlink.com 1.10,2013-01-30 21:52:00,
2013-01-30 22:07:00,44.9,38.0,29.44,SW,222,11.0,31.0,77,0.00,,,0.00,weatherlink.com 1.10,2013-01-30 22:07:00,
2013-01-30 22:22:00,45.6,39.0,29.43,West,269,17.0,26.0,79,0.00,,,0.00,weatherlink.com 1.10,2013-01-30 22:22:00,
2013-01-30 22:38:00,46.4,41.0,29.41,WSW,250,13.0,28.0,81,0.00,,,0.00,weatherlink.com 1.10,2013-01-30 22:38:00,
2013-01-30 22:53:00,47.0,41.0,29.39,WSW,250,8.0,29.0,81,0.00,,,0.00,weatherlink.com 1.10,2013-01-30 22:53:00,
2013-01-30 23:08:00,47.7,40.0,29.39,NW,325,13.0,27.0,76,0.00,,,0.00,weatherlink.com 1.10,2013-01-30 23:08:00,
2013-01-30 23:23:00,48.3,41.0,29.38,WSW,252,13.0,26.0,76,0.00,,,0.00,weatherlink.com 1.10,2013-01-30 23:23:00,
2013-01-30 23:38:00,48.6,42.0,29.34,West,262,32.0,33.0,77,0.00,,,0.00,weatherlink.com 1.10,2013-01-30 23:38:00,
2013-01-30 23:53:00,49.0,41.0,29.32,West,259,24.0,33.0,74,0.00,,,0.00,weatherlink.com 1.10,2013-01-30 23:53:00,